Weather History for Catania, Italy

Change the Weather History Date:

Saturday, November 2, 2013

  Actual Average Record
Temperature  
Mean Temperature 63 °F -  
Max Temperature 75 °F 69 °F 78 °F (2004)
Min Temperature 51 °F 49 °F 46 °F (2014)
Degree Days  
Heating Degree Days 2    
Growing Degree Days 13 (Base 50)    
Moisture  
Dew Point 53 °F    
Average Humidity 72    
Maximum Humidity 88    
Minimum Humidity 38    
Precipitation  
Precipitation 0.00 in 0.08 in - ()
Sea Level Pressure  
Sea Level Pressure 30.12 in    
Wind  
Wind Speed 5 mph ()    
Max Wind Speed 14 mph    
Max Gust Speed -    
Visibility 6.0 miles    
Events Thunderstorm    
Averages and records for this station are not official NWS values.
T = Trace of Precipitation, MM = Missing Value Source: Averaged Metar Reports

Daily Weather History Graph

Daily Weather History Graph

Search for Another Location

Airport:

Trip Planner

Search our weather history database for the weather conditions in past years. The results will help you decide how hot, cold, wet, or windy it might be!

Date:

Astronomy

Nov. 02, 2013 Rise Set
Actual Time 6:25 AM CET 5:00 PM CET
Civil Twilight 5:58 AM CET 5:27 PM CET
Nautical Twilight 5:27 AM CET 5:58 PM CET
Astronomical Twilight 4:57 AM CET 6:29 PM CET
Moon 5:05 AM CET (11/2) 4:19 PM CET (11/2)
Length of Visible Light 11h 29m
Length of Day
10h 34m
Waning Crescent, 2% of the Moon is Illuminated
Nov 2
Waning Crescent
Nov 3
New
Nov 10
First Quarter
Nov 17
Full
Nov 25
Last Quarter

Hourly Weather History & Observations

Time (CET) Temp. Dew Point Humidity Pressure Visibility Wind Dir Wind Speed Gust Speed Precip Events Conditions
12:20 AM 57.2 °F 51.8 °F 82% 30.15 in - WSW 5.8 mph - N/A   Clear
12:50 AM 53.6 °F 50.0 °F 88% 30.15 in - SW 8.1 mph - N/A   Clear
1:20 AM 53.6 °F 50.0 °F 88% 30.15 in 1.9 mi WSW 6.9 mph - N/A   Mist
1:50 AM 53.6 °F 50.0 °F 88% 30.15 in 3.1 mi SSW 3.5 mph - N/A   Mist
2:20 AM 53.6 °F 50.0 °F 88% 30.15 in - WSW 8.1 mph - N/A   Clear
2:50 AM 53.6 °F 50.0 °F 88% 30.15 in 6.2 mi SSW 3.5 mph - N/A   Partly Cloudy
3:20 AM 51.8 °F 48.2 °F 88% 30.15 in - WSW 5.8 mph - N/A   Clear
3:50 AM 53.6 °F 50.0 °F 88% 30.15 in 6.2 mi WSW 6.9 mph - N/A   Scattered Clouds
4:20 AM 53.6 °F 50.0 °F 88% 30.12 in 6.2 mi WSW 5.8 mph - N/A   Partly Cloudy
4:50 AM 53.6 °F 50.0 °F 88% 30.12 in - SW 5.8 mph - N/A   Clear
5:20 AM 53.6 °F 48.2 °F 82% 30.12 in - WSW 8.1 mph - N/A   Clear
5:50 AM 53.6 °F 50.0 °F 88% 30.12 in - West 9.2 mph - N/A   Clear
9:20 AM 69.8 °F 55.4 °F 60% 30.15 in - SW 5.8 mph - N/A   Clear
9:50 AM 68.0 °F 50.0 °F 52% 30.15 in - WSW 5.8 mph - N/A   Clear
10:20 AM 69.8 °F 50.0 °F 49% 30.15 in 6.2 mi SW 4.6 mph - N/A   Partly Cloudy
10:50 AM 71.6 °F 50.0 °F 46% 30.15 in 6.2 mi SW 4.6 mph - N/A   Scattered Clouds
11:20 AM 73.4 °F 50.0 °F 44% 30.15 in 6.2 mi Variable 2.3 mph - N/A   Scattered Clouds
11:50 AM 75.2 °F 48.2 °F 38% 30.12 in 6.2 mi Variable 2.3 mph - N/A Thunderstorm Thunderstorm
12:20 PM 73.4 °F 51.8 °F 47% 30.12 in 6.2 mi Variable 2.3 mph - N/A Thunderstorm Thunderstorm
12:50 PM 73.4 °F 55.4 °F 53% 30.12 in 6.2 mi Variable 2.3 mph - N/A Thunderstorm Thunderstorm
1:20 PM 71.6 °F 59.0 °F 64% 30.09 in 6.2 mi SE 13.8 mph - N/A Thunderstorm Thunderstorm
1:50 PM 69.8 °F 55.4 °F 60% 30.12 in 6.2 mi South 9.2 mph - N/A Thunderstorm Thunderstorm
2:20 PM 69.8 °F 55.4 °F 60% 30.09 in 6.2 mi WSW 5.8 mph - N/A   Mostly Cloudy
2:50 PM 68.0 °F 53.6 °F 60% 30.09 in 6.2 mi Variable 2.3 mph - N/A   Light Drizzle
3:20 PM 68.0 °F 53.6 °F 60% 30.06 in 6.2 mi Variable 2.3 mph - N/A   Scattered Clouds
3:50 PM 69.8 °F 51.8 °F 53% 30.06 in 6.2 mi Variable 1.2 mph - N/A   Partly Cloudy
4:20 PM 69.8 °F 53.6 °F 56% 30.06 in - Variable 2.3 mph - N/A   Clear
4:50 PM 68.0 °F 51.8 °F 56% 30.09 in 6.2 mi ESE 4.6 mph - N/A   Partly Cloudy
5:20 PM 66.2 °F 55.4 °F 68% 30.09 in 6.2 mi SE 4.6 mph - N/A   Partly Cloudy
5:50 PM 66.2 °F 55.4 °F 68% 30.09 in 6.2 mi Variable 2.3 mph - N/A   Partly Cloudy
6:20 PM 66.2 °F 57.2 °F 73% 30.09 in 6.2 mi East 3.5 mph - N/A   Partly Cloudy
6:50 PM 66.2 °F 60.8 °F 83% 30.09 in - NE 5.8 mph - N/A   Clear
7:20 PM 66.2 °F 59.0 °F 78% 30.12 in 6.2 mi NNE 5.8 mph - N/A   Partly Cloudy
7:50 PM 66.2 °F 60.8 °F 83% 30.12 in 6.2 mi NNE 5.8 mph - N/A   Partly Cloudy
8:20 PM 62.6 °F 57.2 °F 82% 30.12 in 6.2 mi West 3.5 mph - N/A   Partly Cloudy
8:50 PM 60.8 °F 57.2 °F 88% 30.12 in 6.2 mi West 5.8 mph - N/A   Partly Cloudy
9:20 PM 60.8 °F 57.2 °F 88% 30.12 in 6.2 mi West 4.6 mph - N/A   Partly Cloudy
9:50 PM 60.8 °F 55.4 °F 82% 30.12 in 6.2 mi West 6.9 mph - N/A   Partly Cloudy
10:20 PM 60.8 °F 55.4 °F 82% 30.12 in 6.2 mi WSW 5.8 mph - N/A   Partly Cloudy
10:50 PM 57.2 °F 53.6 °F 88% 30.12 in 6.2 mi WSW 5.8 mph - N/A   Partly Cloudy
11:20 PM 57.2 °F 53.6 °F 88% 30.12 in 6.2 mi WSW 6.9 mph - N/A   Partly Cloudy
11:50 PM 57.2 °F 53.6 °F 88% 30.12 in 6.2 mi WSW 6.9 mph - N/A   Partly Cloudy